CEB2878 RPLL-RPVP

Flight info

Callsign CEB2878
Flight time 0h 56m
Altitude 38000
Route BUCAL2R BUCAL M646 NOMYO NOMYO2W
Aircraft A339/H-SADE1E2E3GHIJ3J5M1P2RWXY/LB2D1

Departure

Time 2026-04-22 04:07
Airport Ninoy Aquino International Airport (RPLL)

Arrival

Time 2026-04-22 05:04
Airport Puerto Princesa International Airport / PAF Antonio Bautista Air Base (RPVP)
Time Latitude Longitude Altitude Speed Heading
2026-04-22 03:41 14.51805 121.01367 75 ft 0 kts 45°
2026-04-22 03:54 14.51805 121.01366 74 ft 2 kts 45°
2026-04-22 03:54 14.51786 121.01347 64 ft 4 kts 46°
2026-04-22 03:54 14.51767 121.01327 64 ft 4 kts 49°
2026-04-22 03:54 14.51753 121.01309 64 ft 2 kts 68°
2026-04-22 03:55 14.51747 121.01298 64 ft 2 kts 98°
2026-04-22 03:55 14.51748 121.01287 64 ft 2 kts 121°
2026-04-22 03:55 14.51754 121.01277 64 ft 2 kts 130°
2026-04-22 03:55 14.51761 121.01267 64 ft 3 kts 142°
2026-04-22 03:56 14.51770 121.01261 64 ft 0 kts 140°
2026-04-22 03:58 14.51768 121.01264 64 ft 2 kts 135°
2026-04-22 03:58 14.51751 121.01283 64 ft 5 kts 133°
2026-04-22 03:59 14.51718 121.01319 71 ft 8 kts 133°
2026-04-22 03:59 14.51670 121.01369 72 ft 11 kts 135°
2026-04-22 03:59 14.51609 121.01432 69 ft 14 kts 135°
2026-04-22 03:59 14.51537 121.01506 64 ft 16 kts 135°
2026-04-22 04:00 14.51454 121.01591 72 ft 18 kts 135°
2026-04-22 04:00 14.51363 121.01684 65 ft 19 kts 135°
2026-04-22 04:00 14.51264 121.01787 72 ft 21 kts 135°
2026-04-22 04:00 14.51160 121.01895 64 ft 22 kts 135°
2026-04-22 04:01 14.51077 121.01981 64 ft 10 kts 135°
2026-04-22 04:01 14.51040 121.01986 67 ft 2 kts 206°
2026-04-22 04:01 14.51029 121.01968 66 ft 5 kts 231°
2026-04-22 04:01 14.51003 121.01927 66 ft 9 kts 238°
2026-04-22 04:02 14.50966 121.01862 67 ft 12 kts 241°
2026-04-22 04:02 14.50921 121.01777 66 ft 15 kts 242°
2026-04-22 04:02 14.50868 121.01676 60 ft 17 kts 242°
2026-04-22 04:02 14.50806 121.01565 69 ft 19 kts 239°
2026-04-22 04:03 14.50737 121.01445 68 ft 20 kts 239°
2026-04-22 04:03 14.50666 121.01313 64 ft 21 kts 241°
2026-04-22 04:03 14.50590 121.01176 70 ft 23 kts 238°
2026-04-22 04:03 14.50509 121.01032 68 ft 24 kts 239°
2026-04-22 04:04 14.50422 121.00879 69 ft 25 kts 240°
2026-04-22 04:04 14.50334 121.00716 67 ft 27 kts 240°
2026-04-22 04:04 14.50240 121.00549 64 ft 28 kts 239°
2026-04-22 04:04 14.50142 121.00375 65 ft 28 kts 240°
2026-04-22 04:05 14.50054 121.00217 64 ft 25 kts 240°
2026-04-22 04:05 14.49964 121.00058 72 ft 26 kts 239°
2026-04-22 04:05 14.49912 120.99976 67 ft 5 kts 229°
2026-04-22 04:05 14.49882 120.99971 66 ft 3 kts 167°
2026-04-22 04:06 14.49866 120.99981 64 ft 4 kts 155°
2026-04-22 04:06 14.49836 120.99995 68 ft 6 kts 155°
2026-04-22 04:06 14.49806 121.00026 66 ft 5 kts 116°
2026-04-22 04:06 14.49817 121.00058 68 ft 5 kts 65°
2026-04-22 04:07 14.49835 121.00098 64 ft 9 kts 65°
2026-04-22 04:07 14.50015 121.00424 63 ft 102 kts 61°
2026-04-22 04:07 14.50497 121.01297 268 ft 161 kts 62°
2026-04-22 04:07 14.51104 121.02296 1157 ft 170 kts 60°
2026-04-22 04:08 14.51750 121.03347 2100 ft 177 kts 60°
2026-04-22 04:08 14.52426 121.04462 2895 ft 191 kts 60°
2026-04-22 04:08 14.52849 121.05290 3275 ft 203 kts 73°
2026-04-22 04:08 14.52756 121.07292 4002 ft 226 kts 113°
2026-04-22 04:09 14.51765 121.08602 4426 ft 247 kts 140°
2026-04-22 04:09 14.50135 121.09349 4768 ft 270 kts 168°
2026-04-22 04:09 14.48855 121.09353 5209 ft 277 kts 187°
2026-04-22 04:09 14.46466 121.08388 6219 ft 283 kts 207°
2026-04-22 04:10 14.45315 121.07683 6694 ft 286 kts 210°
2026-04-22 04:10 14.43069 121.06226 7629 ft 290 kts 211°
2026-04-22 04:10 14.41924 121.05502 8065 ft 293 kts 210°
2026-04-22 04:10 14.40155 121.04419 8693 ft 299 kts 207°
2026-04-22 04:11 14.38335 121.03347 9376 ft 303 kts 207°
2026-04-22 04:11 14.36498 121.02293 10151 ft 302 kts 208°
2026-04-22 04:11 14.34613 121.01208 10485 ft 319 kts 208°
2026-04-22 04:11 14.32619 121.00064 10694 ft 338 kts 208°
2026-04-22 04:12 14.29814 120.98446 11032 ft 357 kts 208°
2026-04-22 04:12 14.28336 120.97589 11338 ft 361 kts 208°
2026-04-22 04:12 14.26154 120.96329 12057 ft 360 kts 209°
2026-04-22 04:12 14.23947 120.95054 12509 ft 366 kts 209°
2026-04-22 04:13 14.21743 120.93784 13161 ft 366 kts 210°
2026-04-22 04:13 14.19504 120.92495 13715 ft 371 kts 210°
2026-04-22 04:13 14.17259 120.91200 14263 ft 371 kts 210°
2026-04-22 04:13 14.14990 120.89891 14764 ft 374 kts 210°
2026-04-22 04:14 14.12707 120.88573 15236 ft 376 kts 210°
2026-04-22 04:14 14.10416 120.87251 15783 ft 378 kts 210°
2026-04-22 04:14 14.08113 120.85922 16247 ft 380 kts 210°
2026-04-22 04:14 14.05802 120.84588 16749 ft 382 kts 210°
2026-04-22 04:15 14.03502 120.83263 17221 ft 385 kts 210°
2026-04-22 04:15 14.01158 120.81912 17680 ft 387 kts 210°
2026-04-22 04:15 13.98804 120.80556 18153 ft 389 kts 210°
2026-04-22 04:15 13.96432 120.79189 18580 ft 391 kts 210°
2026-04-22 04:16 13.94054 120.77820 19021 ft 392 kts 210°
2026-04-22 04:16 13.89263 120.75061 19840 ft 396 kts 210°
2026-04-22 04:16 13.86844 120.73667 20251 ft 398 kts 210°
2026-04-22 04:17 13.84425 120.72275 20750 ft 398 kts 210°
2026-04-22 04:17 13.82004 120.70880 21239 ft 398 kts 211°
2026-04-22 04:17 13.79583 120.69487 21680 ft 400 kts 210°
2026-04-22 04:17 13.77140 120.68081 22051 ft 403 kts 210°
2026-04-22 04:18 13.74708 120.66680 22410 ft 407 kts 210°
2026-04-22 04:18 13.72231 120.65257 22846 ft 409 kts 211°
2026-04-22 04:18 13.69745 120.63829 23334 ft 410 kts 210°
2026-04-22 04:18 13.67253 120.62399 23771 ft 410 kts 210°
2026-04-22 04:19 13.64741 120.60954 24008 ft 416 kts 210°
2026-04-22 04:19 13.62202 120.59493 24349 ft 419 kts 210°
2026-04-22 04:19 13.59631 120.58042 24706 ft 421 kts 208°
2026-04-22 04:19 13.56987 120.56770 25144 ft 421 kts 205°
2026-04-22 04:20 13.54349 120.55512 25461 ft 424 kts 206°
2026-04-22 04:20 13.51656 120.54217 25769 ft 428 kts 206°
2026-04-22 04:20 13.48952 120.52913 26120 ft 430 kts 206°
2026-04-22 04:20 13.46232 120.51601 26416 ft 434 kts 206°
2026-04-22 04:21 13.43488 120.50281 26843 ft 434 kts 206°
2026-04-22 04:21 13.40745 120.48961 27195 ft 437 kts 206°
2026-04-22 04:21 13.37986 120.47634 27590 ft 438 kts 206°
2026-04-22 04:21 13.35247 120.46316 27847 ft 443 kts 206°
2026-04-22 04:22 13.32453 120.44972 28209 ft 444 kts 205°
2026-04-22 04:22 13.29638 120.43620 28493 ft 448 kts 206°
2026-04-22 04:22 13.26816 120.42266 28902 ft 449 kts 206°
2026-04-22 04:22 13.23977 120.40904 29370 ft 448 kts 206°
2026-04-22 04:23 13.21131 120.39536 29564 ft 454 kts 205°
2026-04-22 04:23 13.18249 120.38150 29756 ft 460 kts 205°
2026-04-22 04:23 13.15345 120.36757 30123 ft 461 kts 205°
2026-04-22 04:23 13.12468 120.35377 30448 ft 462 kts 205°
2026-04-22 04:24 13.09548 120.33977 30776 ft 464 kts 205°
2026-04-22 04:24 13.06607 120.32567 31099 ft 466 kts 205°
2026-04-22 04:24 13.03662 120.31155 31440 ft 468 kts 206°
2026-04-22 04:24 13.00699 120.29734 31770 ft 470 kts 206°
2026-04-22 04:25 12.97723 120.28309 32102 ft 472 kts 206°
2026-04-22 04:25 12.94783 120.26900 32386 ft 473 kts 206°
2026-04-22 04:25 12.91793 120.25468 32652 ft 475 kts 206°
2026-04-22 04:25 12.88794 120.24032 32874 ft 476 kts 206°
2026-04-22 04:26 12.85786 120.22592 33080 ft 478 kts 206°
2026-04-22 04:26 12.82771 120.21149 33268 ft 479 kts 206°
2026-04-22 04:26 12.79742 120.19700 33431 ft 480 kts 206°
2026-04-22 04:26 12.76717 120.18253 33637 ft 479 kts 206°
2026-04-22 04:27 12.73698 120.16810 33856 ft 478 kts 206°
2026-04-22 04:27 12.70685 120.15370 34059 ft 477 kts 206°
2026-04-22 04:27 12.67680 120.13934 34277 ft 476 kts 206°
2026-04-22 04:27 12.64683 120.12501 34476 ft 475 kts 206°
2026-04-22 04:28 12.61693 120.11073 34681 ft 473 kts 206°
2026-04-22 04:28 12.58713 120.09650 34905 ft 472 kts 206°
2026-04-22 04:28 12.55743 120.08232 35117 ft 471 kts 206°
2026-04-22 04:28 12.52779 120.06817 35309 ft 469 kts 206°
2026-04-22 04:29 12.49820 120.05406 35539 ft 468 kts 206°
2026-04-22 04:29 12.46868 120.03998 35772 ft 467 kts 206°
2026-04-22 04:29 12.43930 120.02596 35998 ft 466 kts 206°
2026-04-22 04:29 12.40996 120.01197 36228 ft 465 kts 206°
2026-04-22 04:30 12.38073 119.99804 36470 ft 463 kts 206°
2026-04-22 04:30 12.35184 119.98426 36721 ft 461 kts 206°
2026-04-22 04:30 12.32286 119.97046 36970 ft 460 kts 206°
2026-04-22 04:30 12.29387 119.95665 37205 ft 458 kts 206°
2026-04-22 04:31 12.26499 119.94290 37445 ft 457 kts 206°
2026-04-22 04:31 12.23612 119.92915 37665 ft 456 kts 206°
2026-04-22 04:31 12.20738 119.91547 37859 ft 456 kts 206°
2026-04-22 04:32 12.15005 119.88819 37895 ft 453 kts 206°
2026-04-22 04:32 12.09290 119.86101 37896 ft 453 kts 206°
2026-04-22 04:33 12.03596 119.83394 37897 ft 453 kts 206°
2026-04-22 04:33 11.97872 119.80674 37899 ft 454 kts 206°
2026-04-22 04:34 11.92137 119.77951 37896 ft 454 kts 206°
2026-04-22 04:34 11.86407 119.75231 37898 ft 454 kts 206°
2026-04-22 04:35 11.80678 119.72512 37895 ft 454 kts 206°
2026-04-22 04:35 11.74950 119.69795 37894 ft 454 kts 206°
2026-04-22 04:36 11.69253 119.67095 37894 ft 454 kts 206°
2026-04-22 04:36 11.63473 119.64406 37894 ft 454 kts 205°
2026-04-22 04:37 11.57747 119.61757 37895 ft 454 kts 205°
2026-04-22 04:37 11.51990 119.59088 37895 ft 454 kts 205°
2026-04-22 04:38 11.46240 119.56421 37881 ft 454 kts 205°
2026-04-22 04:38 11.40479 119.53750 37891 ft 454 kts 205°
2026-04-22 04:39 11.34717 119.51080 37892 ft 455 kts 205°
2026-04-22 04:39 11.28991 119.48427 37897 ft 455 kts 205°
2026-04-22 04:40 11.23223 119.45757 37895 ft 455 kts 205°
2026-04-22 04:40 11.17446 119.43083 37893 ft 456 kts 205°
2026-04-22 04:41 11.11672 119.40412 37891 ft 456 kts 205°
2026-04-22 04:41 11.05895 119.37741 37678 ft 457 kts 205°
2026-04-22 04:41 11.02994 119.36400 37424 ft 457 kts 205°
2026-04-22 04:42 11.00096 119.35060 37148 ft 458 kts 205°
2026-04-22 04:42 10.97187 119.33716 36486 ft 461 kts 205°
2026-04-22 04:42 10.94248 119.32358 35390 ft 468 kts 205°
2026-04-22 04:42 10.91253 119.30975 33963 ft 479 kts 205°
2026-04-22 04:43 10.88193 119.29562 32341 ft 485 kts 205°
2026-04-22 04:43 10.85151 119.28157 30900 ft 487 kts 205°
2026-04-22 04:43 10.82075 119.26736 29912 ft 483 kts 204°
2026-04-22 04:43 10.79028 119.25331 29067 ft 477 kts 204°
2026-04-22 04:44 10.76032 119.23949 28483 ft 467 kts 204°
2026-04-22 04:44 10.73076 119.22586 27627 ft 464 kts 204°
2026-04-22 04:44 10.70150 119.21237 26896 ft 459 kts 204°
2026-04-22 04:44 10.67252 119.19901 26029 ft 457 kts 204°
2026-04-22 04:45 10.64367 119.18571 25238 ft 453 kts 204°
2026-04-22 04:45 10.61498 119.17248 24451 ft 449 kts 204°
2026-04-22 04:45 10.58651 119.15936 23679 ft 447 kts 204°
2026-04-22 04:45 10.55819 119.14632 22792 ft 445 kts 204°
2026-04-22 04:46 10.53061 119.13363 22064 ft 438 kts 204°
2026-04-22 04:46 10.50297 119.12092 21191 ft 433 kts 204°
2026-04-22 04:46 10.47574 119.10840 20445 ft 426 kts 204°
2026-04-22 04:46 10.44885 119.09603 19661 ft 421 kts 205°
2026-04-22 04:47 10.42224 119.08379 18868 ft 416 kts 205°
2026-04-22 04:47 10.39599 119.07172 18106 ft 411 kts 206°
2026-04-22 04:47 10.37006 119.05977 17310 ft 404 kts 205°
2026-04-22 04:47 10.34536 119.04698 16529 ft 394 kts 211°
2026-04-22 04:48 10.32299 119.03142 15785 ft 386 kts 217°
2026-04-22 04:48 10.30174 119.01515 15041 ft 380 kts 217°
2026-04-22 04:48 10.28107 118.99952 14343 ft 372 kts 217°
2026-04-22 04:48 10.26033 118.98394 13652 ft 366 kts 216°
2026-04-22 04:49 10.23998 118.96869 12837 ft 362 kts 216°
2026-04-22 04:49 10.22002 118.95373 12235 ft 352 kts 216°
2026-04-22 04:49 10.20050 118.93907 11554 ft 346 kts 216°
2026-04-22 04:49 10.18139 118.92474 11379 ft 342 kts 215°
2026-04-22 04:50 10.16163 118.91000 11276 ft 356 kts 215°
2026-04-22 04:50 10.14003 118.89796 11156 ft 352 kts 199°
2026-04-22 04:50 10.11613 118.89338 10626 ft 352 kts 181°
2026-04-22 04:50 10.09218 118.89689 9970 ft 351 kts 162°
2026-04-22 04:51 10.07019 118.90568 9753 ft 328 kts 156°
2026-04-22 04:51 10.04986 118.91446 9537 ft 307 kts 157°
2026-04-22 04:51 10.03054 118.92204 9264 ft 289 kts 159°
2026-04-22 04:51 10.01173 118.92862 8671 ft 285 kts 161°
2026-04-22 04:52 9.99287 118.93461 8006 ft 283 kts 162°
2026-04-22 04:52 9.97400 118.94029 7377 ft 282 kts 162°
2026-04-22 04:52 9.95524 118.94582 6765 ft 278 kts 162°
2026-04-22 04:52 9.93679 118.95125 6238 ft 273 kts 162°
2026-04-22 04:53 9.91894 118.95646 5855 ft 260 kts 161°
2026-04-22 04:53 9.90208 118.96142 5484 ft 250 kts 161°
2026-04-22 04:53 9.88510 118.96647 5137 ft 270 kts 161°
2026-04-22 04:53 9.86653 118.97209 5036 ft 281 kts 161°
2026-04-22 04:54 9.84800 118.97760 4873 ft 275 kts 162°
2026-04-22 04:54 9.82956 118.98302 4348 ft 273 kts 162°
2026-04-22 04:54 9.81096 118.98658 3764 ft 270 kts 172°
2026-04-22 04:54 9.79225 118.98636 3281 ft 264 kts 181°
2026-04-22 04:55 9.77391 118.98508 3177 ft 270 kts 179°
2026-04-22 04:55 9.75537 118.98364 3049 ft 262 kts 188°
2026-04-22 04:55 9.73957 118.97633 2948 ft 248 kts 216°
2026-04-22 04:55 9.72932 118.96284 2831 ft 237 kts 246°
2026-04-22 04:56 9.72687 118.94690 2726 ft 225 kts 274°
2026-04-22 04:56 9.72949 118.93163 2626 ft 214 kts 283°
2026-04-22 04:56 9.73271 118.91729 2507 ft 204 kts 281°
2026-04-22 04:56 9.73498 118.90364 2498 ft 192 kts 278°
2026-04-22 04:57 9.73645 118.88985 2500 ft 200 kts 274°
2026-04-22 04:57 9.73739 118.87604 2484 ft 192 kts 273°
2026-04-22 04:57 9.73797 118.86286 2419 ft 181 kts 271°
2026-04-22 04:57 9.73842 118.85066 2234 ft 169 kts 272°
2026-04-22 04:58 9.73882 118.83874 1918 ft 169 kts 271°
2026-04-22 04:58 9.73941 118.82703 1649 ft 167 kts 270°
2026-04-22 04:58 9.73987 118.81493 1525 ft 173 kts 271°
2026-04-22 04:58 9.74078 118.80287 1401 ft 171 kts 283°
2026-04-22 04:59 9.74696 118.79308 1334 ft 173 kts 320°
2026-04-22 04:59 9.75575 118.78446 1331 ft 175 kts 319°
2026-04-22 04:59 9.76143 118.77881 1305 ft 168 kts 318°
2026-04-22 04:59 9.77279 118.76770 1300 ft 174 kts 318°
2026-04-22 05:00 9.77847 118.76227 1306 ft 167 kts 320°
2026-04-22 05:00 9.78494 118.75199 1341 ft 178 kts 285°
2026-04-22 05:00 9.78622 118.73999 1277 ft 165 kts 270°
2026-04-22 05:00 9.78689 118.72787 1428 ft 176 kts 271°
2026-04-22 05:01 9.78689 118.71590 1179 ft 161 kts 259°
2026-04-22 05:01 9.78127 118.70674 1078 ft 146 kts 214°
2026-04-22 05:01 9.76924 118.70190 934 ft 142 kts 184°
2026-04-22 05:01 9.76259 118.70152 872 ft 144 kts 177°
2026-04-22 05:02 9.75283 118.70265 788 ft 137 kts 158°
2026-04-22 05:02 9.74542 118.70849 747 ft 142 kts 111°
2026-04-22 05:02 9.74448 118.71758 485 ft 121 kts 89°
2026-04-22 05:02 9.74375 118.72632 449 ft 130 kts 90°
2026-04-22 05:03 9.74320 118.73547 354 ft 132 kts 88°
2026-04-22 05:03 9.74275 118.74479 170 ft 129 kts 88°
2026-04-22 05:03 9.74235 118.75405 107 ft 128 kts 91°
2026-04-22 05:03 9.74217 118.76229 84 ft 102 kts 91°
2026-04-22 05:04 9.74185 118.76733 88 ft 35 kts 95°
2026-04-22 05:04 9.74182 118.76879 87 ft 18 kts 71°
2026-04-22 05:04 9.74180 118.76966 88 ft 6 kts 142°
2026-04-22 05:04 9.74162 118.76952 88 ft 2 kts 231°